Content
SEND FEEDBACK

Daily
Averages
Monthly
Summary
United States of America

BERNIE, MISSOURI


Home > North America > United States > Missouri
Elevation: 302 feet     Latitude: 36 40N     Longitude: 089 58W

WEATHER
 
SELECT A DAY
Number of Records: 210,195;   Date Range: 1/1/95 - 10/1/14
 
SHARE

PRINT THIS DATA

[ ← Previous Day ]
WEATHER ALMANAC - JANUARY 12, 2014
[ Next Day → ]
[ °C ]   °F
Weather ElementAverageHighLow
Temperature44.9 °F55.9 °F (2:53 pm)30 °F (6:53 am)
Dewpoint32.4 °F37.9 °F (2:53 pm)26.1 °F (6:53 am)
Humidity63 %85 % (6:53 am)48 % (12:53 pm)
Barometer29.94 in30.06 in (6:53 am)29.79 in (11:53 pm)
Wind Speed9.4 mph18.4 mph (7:53 pm)
Wind Gust31.1 mph (7:53 pm)
Weather ElementAverage
Visibility10 mi
Wind DirectionSSE (168.7 °)

Weather ElementTotal
Precipitation---
Heating Degree Days22.1 (Base 65)
Averaged from 23 records on January 12, 2014
WEATHER CONDITIONS BREAKOUT
WIND DIRECTION BREAKOUT
WEATHER BY HOUR - JANUARY 12, 2014
[ °C ]   °F
Local TimeTemperatureDewpointHumidityBarometerVisibilityWind DirectionWind SpeedGust SpeedPrecipitationEventsConditions
1:53 AM34.0 °F28.0 °F79 %29.99 in10.0 miCalmClear
2:53 AM32.0 °F27.0 °F82 %30.01 in10.0 miCalmClear
3:53 AM32.0 °F27.0 °F82 %30.03 in10.0 miSSW (200°)3.5 mphClear
4:53 AM33.1 °F27.0 °F78 %30.03 in10.0 miSSW (210°)3.5 mphClear
5:53 AM32.0 °F27.0 °F82 %30.04 in10.0 miSouth (190°)3.5 mphClear
6:53 AM30.0 °F26.1 °F85 %30.06 in10.0 miSouth (190°)3.5 mphClear
7:53 AM34.0 °F28.0 °F79 %30.06 in10.0 miSSE (150°)3.5 mphClear
8:53 AM39.0 °F30.9 °F73 %30.06 in10.0 miSSW (210°)3.5 mphClear
9:53 AM44.1 °F30.9 °F60 %30.05 in10.0 miSouth (170°)9.2 mphClear
10:53 AM46.9 °F34.0 °F61 %30.04 in10.0 miSSW (200°)9.2 mphClear
11:53 AM50.0 °F34.0 °F54 %29.98 in10.0 miSSW (200°)12.7 mph18.4 mphClear
12:53 PM53.1 °F34.0 °F48 %29.93 in10.0 miSouth (190°)13.8 mphClear
1:53 PM55.0 °F36.0 °F49 %29.91 in10.0 miSSW (200°)12.7 mph26.5 mphClear
2:53 PM55.9 °F37.9 °F51 %29.88 in10.0 miSouth (180°)11.5 mphClear
3:53 PM55.0 °F37.0 °F51 %29.87 in10.0 miSouth (170°)12.7 mphClear
4:53 PM53.1 °F37.0 °F55 %29.86 in10.0 miSouth (170°)17.3 mph23.0 mphClear
5:53 PM51.1 °F36.0 °F56 %29.86 in10.0 miSouth (170°)13.8 mphClear
6:53 PM51.1 °F35.1 °F54 %29.86 in10.0 miSouth (180°)17.3 mph25.3 mphClear
7:53 PM52.0 °F33.1 °F49 %29.85 in10.0 miSouth (180°)18.4 mph31.1 mphClear
8:53 PM50.0 °F34.0 °F54 %29.83 in10.0 miSouth (180°)13.8 mphClear
9:53 PM51.1 °F35.1 °F54 %29.83 in10.0 miSouth (180°)13.8 mph19.6 mphClear
10:53 PM48.9 °F35.1 °F59 %29.82 in10.0 miSouth (190°)9.2 mphClear
11:53 PM50.0 °F34.0 °F54 %29.79 in10.0 miSouth (170°)10.4 mphClear
Hourly data recorded from KPOF, located miles away from Bernie, Missouri







STORIES FROM OUR PARTNERS